Location: Gilevgi
(36.8751°N, 30.0581°E)
Time: 08:11:31
(UTC+00:00)

Okean 1-7 Rocket - Pass Details

Date: 15 March 2026
Orbit: 609 x 643 km, 82.5° (Epoch: 18 April)

Event Time Altitude Azimuth Distance (km) Brightness Sun altitude
Rises 03:35:32 0° 354° (N) 2,923 7.0 -7.9°
Reaches altitude 10° 03:37:47 10° 356° (N) 2,006 6.2 -7.5°
Maximum altitude 03:42:14 80° 83° (E) 636 3.8 -6.6°
Drops below altitude 10° 03:46:36 10° 170° (S) 1,970 6.3 -5.7°
Sets 03:48:48 0° 172° (S) 2,867 7.1 -5.3°
